Погода в Игрекове

Россия / Томская область     57°44′43″N   83°47′47″E
темп.,
°C
ветер,
м/с
пор.,
м/с
влажн.,
%
обл.,
%
осадки,
мм/ч
давл.,
гПа
погр.,
м
28 июля, ср
ср2801:00+11юз228238 0.0 100842
04:00+12юз2274100 0.0 100843
07:00+13юз2272100 0.0 100851
10:00+15ююз236597 0.0 1009266
13:00+20ю334420 0.0 10091272
16:00+22ю223785 0.0 10082355
19:00+17ююв2359100 0.0 100862
22:00+16ююв2261100 0.0 100923
29 июля, чт
чт2901:00+15ю2263100 0.0 100936
04:00+14ююв2469100 0.0 100890
07:00+14ююв257679 0.0 1008166
10:00+19ю465644 0.0 1007716
13:00+23ю584156 0.0 10062357
16:00+19ю2558100 0.0 1006130
19:00+16юз5789100 2.9 1007390
22:00+14ююз229419 3.8 100734
30 июля, пт
пт3001:00+11зсз23951 3.9 100850
04:00+10сз229814 0.0 100938
07:00+11зсз239613 0.0 1010100
10:00+15з24730 0.0 1011652
13:00+19з35410 0.0 10111758
16:00+22зюз463736 0.0 10102438
19:00+18юз245865 0.0 101173
22:00+14ююз3770100 0.0 1012120
31 июля, сб
сб3101:00+14ююз377566 0.0 1012154
04:00+13ююз2478100 0.0 101292
07:00+14ююв3572100 0.0 1013147
10:00+17ю41059100 0.0 1013529
13:00+23ю6841100 0.0 10121736
16:00+24ю5836100 0.0 10112649
19:00+20ю2357100 0.0 101162
22:00+16ссв2273100 0.0 101218
1 августа, вс
вс101:00+16ююв2368100 0.0 101151
04:00+15з2377100 0.0 101173
07:00+14зсз248883 0.0 1012147
10:00+18сз337295 0.0 1012585
13:00+21ссз235712 0.0 10111114
16:00+22ссв1251100 0.0 1011826
19:00+22всв225224 0.0 1010603
22:00+16в22734 0.0 101019